Weather reports worldwide

Advertisment
Tyndrum, United Kingdom (99020): temperature & dewpoint: 17.05.2019 13:00:00 - 23.05.2019 13:00:00 (BST)Tyndrum, United Kingdom (99020): precipitation: 17.05.2019 13:00:00 - 23.05.2019 13:00:00 (BST)
Date & Time tt [°C] td [°C] rr [mm]
23.05.2019 13:00:00 - - -
23.05.2019 12:00:00 11,9 7,1 0,0
23.05.2019 11:00:00 12,5 7,4 0,0
23.05.2019 10:00:00 10,8 6,7 0,0
23.05.2019 09:00:00 10,1 7,1 0,0
23.05.2019 08:00:00 9,5 6,8 0,0
23.05.2019 07:00:00 9,2 6,3 0,0
23.05.2019 06:00:00 8,9 6,1 0,0
23.05.2019 05:00:00 8,7 6,1 0,0
23.05.2019 04:00:00 8,7 6,3 0,0
23.05.2019 03:00:00 8,6 6,2 0,0
23.05.2019 02:00:00 9,0 5,9 0,0
23.05.2019 01:00:00 8,9 5,9 0,0
23.05.2019 00:00:00 9,1 5,4 0,0
22.05.2019 23:00:00 9,2 4,9 0,0
22.05.2019 22:00:00 9,5 4,7 0,0
22.05.2019 21:00:00 10,2 4,9 0,0
22.05.2019 20:00:00 10,5 5,3 0,0
22.05.2019 19:00:00 11,5 5,8 0,0
22.05.2019 18:00:00 11,7 5,8 0,0
22.05.2019 17:00:00 12,1 5,8 0,0
22.05.2019 16:00:00 14,2 6,0 0,0
22.05.2019 15:00:00 14,7 7,8 0,0
22.05.2019 14:00:00 13,0 7,2 0,0
22.05.2019 13:00:00 14,2 7,1 0,0
22.05.2019 12:00:00 12,5 6,5 0,0
22.05.2019 11:00:00 10,4 6,1 0,0
22.05.2019 10:00:00 9,4 6,4 0,0
22.05.2019 09:00:00 8,3 5,5 0,0
22.05.2019 08:00:00 8,2 5,2 0,0
22.05.2019 07:00:00 5,4 5,3 0,0
22.05.2019 06:00:00 1,7 1,5 0,0
22.05.2019 05:00:00 0,2 -0,1 0,0
22.05.2019 04:00:00 0,0 -0,4 0,0
22.05.2019 03:00:00 0,5 -0,1 0,0
22.05.2019 02:00:00 1,3 0,6 0,0
22.05.2019 01:00:00 2,4 1,3 0,0
22.05.2019 00:00:00 3,9 2,1 0,0
21.05.2019 23:00:00 6,1 3,3 0,0
21.05.2019 22:00:00 7,3 3,6 0,0
21.05.2019 21:00:00 9,1 2,9 0,0
21.05.2019 20:00:00 11,8 1,9 0,0
21.05.2019 19:00:00 13,4 3,0 0,0
21.05.2019 18:00:00 14,2 1,8 0,0
21.05.2019 17:00:00 14,7 4,4 0,0
21.05.2019 16:00:00 14,0 2,2 0,0
21.05.2019 15:00:00 14,9 5,1 0,0
21.05.2019 14:00:00 14,7 5,3 0,6
21.05.2019 13:00:00 14,0 4,4 0,0
21.05.2019 12:00:00 13,3 6,2 0,0
21.05.2019 11:00:00 13,1 5,8 0,0
21.05.2019 10:00:00 13,7 7,7 0,0
21.05.2019 09:00:00 10,9 6,6 0,0
21.05.2019 08:00:00 8,2 6,0 0,0
21.05.2019 07:00:00 7,4 6,6 0,0
21.05.2019 06:00:00 7,1 5,9 0,0
21.05.2019 05:00:00 8,0 6,4 0,0
21.05.2019 04:00:00 8,6 7,1 0,0
21.05.2019 03:00:00 9,0 7,3 0,0
21.05.2019 02:00:00 9,1 7,2 0,0
21.05.2019 01:00:00 9,3 7,5 0,0
21.05.2019 00:00:00 9,2 7,7 0,0
20.05.2019 23:00:00 9,8 8,0 0,0
20.05.2019 22:00:00 10,3 8,5 0,0
20.05.2019 21:00:00 10,7 8,6 0,0
20.05.2019 20:00:00 11,2 9,2 0,2
20.05.2019 19:00:00 11,7 8,8 0,4
20.05.2019 18:00:00 13,0 7,7 0,0
20.05.2019 17:00:00 13,1 8,2 0,0
20.05.2019 16:00:00 12,9 8,5 0,0
20.05.2019 15:00:00 12,9 7,5 0,0
20.05.2019 14:00:00 12,3 9,3 0,0
20.05.2019 13:00:00 12,8 9,3 0,0
20.05.2019 12:00:00 13,5 8,7 0,0
20.05.2019 11:00:00 13,7 8,2 0,0
20.05.2019 10:00:00 12,4 8,3 0,0
20.05.2019 09:00:00 11,4 9,1 0,0
20.05.2019 08:00:00 10,3 9,0 0,0
20.05.2019 07:00:00 9,5 8,6 0,0
20.05.2019 06:00:00 9,2 8,5 0,0
20.05.2019 05:00:00 9,2 8,6 0,0
20.05.2019 04:00:00 9,1 8,6 0,0
20.05.2019 03:00:00 9,2 8,7 0,0
20.05.2019 02:00:00 9,3 8,6 0,0
20.05.2019 01:00:00 9,4 8,3 0,0
20.05.2019 00:00:00 9,6 8,4 0,0
19.05.2019 23:00:00 9,8 8,5 0,0
19.05.2019 22:00:00 10,0 8,8 0,0
19.05.2019 21:00:00 10,4 8,4 0,0
19.05.2019 20:00:00 11,1 9,6 0,2
19.05.2019 19:00:00 10,9 9,3 0,0
19.05.2019 18:00:00 11,8 9,3 0,0
19.05.2019 17:00:00 11,7 8,9 0,0
19.05.2019 16:00:00 11,9 9,2 0,0
19.05.2019 15:00:00 12,4 9,7 0,2
19.05.2019 14:00:00 11,8 9,7 0,0
19.05.2019 13:00:00 11,9 9,3 0,0
19.05.2019 12:00:00 11,2 9,6 0,2
19.05.2019 11:00:00 10,5 9,5 0,8
19.05.2019 10:00:00 10,1 9,4 0,2
19.05.2019 09:00:00 9,7 9,3 1,0
19.05.2019 08:00:00 9,3 9,0 0,4
19.05.2019 07:00:00 9,1 8,8 0,4
19.05.2019 06:00:00 8,8 8,5 0,4
19.05.2019 05:00:00 8,8 8,4 0,4
19.05.2019 04:00:00 8,9 8,5 0,2
19.05.2019 03:00:00 8,9 8,5 0,4
19.05.2019 02:00:00 9,1 8,6 0,4
19.05.2019 01:00:00 9,2 8,6 0,0
19.05.2019 00:00:00 9,4 8,6 0,0
18.05.2019 23:00:00 9,6 8,7 0,0
18.05.2019 22:00:00 9,9 8,5 0,0
18.05.2019 21:00:00 10,5 8,8 0,0
18.05.2019 20:00:00 11,0 8,2 0,0
18.05.2019 19:00:00 11,1 8,8 0,0
18.05.2019 18:00:00 11,0 8,9 0,0
18.05.2019 17:00:00 10,7 9,2 0,2
18.05.2019 16:00:00 10,8 9,2 0,0
18.05.2019 15:00:00 10,9 8,9 0,4
18.05.2019 14:00:00 10,7 7,3 0,2
18.05.2019 13:00:00 10,9 7,3 0,6
18.05.2019 12:00:00 10,4 7,7 1,2
18.05.2019 11:00:00 10,4 7,5 1,4
18.05.2019 10:00:00 9,7 8,5 1,0
18.05.2019 09:00:00 9,8 8,0 0,2
18.05.2019 08:00:00 9,7 7,2 0,0
18.05.2019 07:00:00 9,5 7,3 0,0
18.05.2019 06:00:00 10,0 6,9 0,2
18.05.2019 05:00:00 9,8 7,0 0,0
18.05.2019 04:00:00 9,8 7,2 0,0
18.05.2019 03:00:00 10,1 7,3 0,4
18.05.2019 02:00:00 11,0 6,1 0,0
18.05.2019 01:00:00 10,0 6,6 0,0
18.05.2019 00:00:00 10,0 5,8 0,0
17.05.2019 23:00:00 10,3 6,0 0,0
17.05.2019 22:00:00 12,1 4,6 0,0
17.05.2019 21:00:00 13,5 3,9 0,0
17.05.2019 20:00:00 15,3 3,8 0,0
17.05.2019 19:00:00 17,6 5,6 0,0
17.05.2019 18:00:00 19,6 4,5 0,0
17.05.2019 17:00:00 20,0 5,0 0,0
17.05.2019 16:00:00 20,4 5,0 0,0
17.05.2019 15:00:00 19,1 3,8 0,0
17.05.2019 14:00:00 18,6 4,0 0,0
17.05.2019 13:00:00 17,6 4,4 0,0

tt = temperature
td = dewpoint
rr = precipitation

Next stations